This is the latest recevied weather packets stored in our database for station/object SP3ZBZ-13. If no packets are shown the sender has not sent any weather packets the latest 10 day(s).
| Time | Temp. | Humidity | Pressure | Rain* | Wind** | Luminosity | Snow |
|---|---|---|---|---|---|---|---|
| 1777545670 | 12.78° C | 41% | 1025.9 hPa | - | - | 308 W/m² | - |
| 1777544769 | 13.33° C | 40% | 1026 hPa | - | - | 461 W/m² | - |
| 1777543868 | 12.78° C | 41% | 1026.1 hPa | - | - | 503 W/m² | - |
| 1777542967 | 12.22° C | 41% | 1026 hPa | - | - | 489 W/m² | - |
| 1777542067 | 12.22° C | 42% | 1026 hPa | - | - | 395 W/m² | - |
| 1777541165 | 11.67° C | 40% | 1026 hPa | - | - | 400 W/m² | - |
| 1777540264 | 10.56° C | 41% | 1026.2 hPa | - | - | 396 W/m² | - |
| 1777539363 | 10.56° C | 41% | 1026.3 hPa | - | - | 354 W/m² | - |
| 1777538462 | 10° C | 43% | 1026.6 hPa | - | - | 390 W/m² | - |
| 1777537561 | 9.44° C | 41% | 1026.7 hPa | - | - | 260 W/m² | - |
| 1777536659 | 9.44° C | 43% | 1026.8 hPa | - | - | 230 W/m² | - |
| 1777535759 | 8.89° C | 43% | 1026.9 hPa | - | - | 207 W/m² | - |
| 1777534858 | 8.33° C | 47% | 1027 hPa | - | - | 174 W/m² | - |
| 1777533957 | 7.78° C | 49% | 1027 hPa | - | - | 162 W/m² | - |
| 1777533056 | 7.22° C | 52% | 1027.1 hPa | - | - | 123 W/m² | - |
| 1777532155 | 7.22° C | 58% | 1027.1 hPa | - | - | 96 W/m² | - |
| 1777531254 | 6.67° C | 57% | 1027.2 hPa | - | - | 99 W/m² | - |
| 1777530353 | 6.11° C | 57% | 1027 hPa | - | - | 141 W/m² | - |
| 1777529457 | 5.56° C | 59% | 1027.1 hPa | - | - | 151 W/m² | - |
| 1777528551 | 4.44° C | 64% | 1027.1 hPa | - | - | 129 W/m² | - |
| 1777527650 | 3.89° C | 67% | 1027.1 hPa | - | - | 118 W/m² | - |
| 1777526749 | 3.33° C | 68% | 1026.9 hPa | - | - | 91 W/m² | - |
| 1777525848 | 2.78° C | 70% | 1027.1 hPa | - | - | 70 W/m² | - |
| 1777524947 | 1.67° C | 74% | 1027.1 hPa | - | - | 50 W/m² | - |
| 1777524046 | 1.11° C | 77% | 1027.2 hPa | - | - | 36 W/m² | - |
* Rain since midnight (hover to see other rain measurements)
** Current wind speed in m/s (hover to see current wind gust speed)